When you browse on this site, cookies collect data to enhance your experience and personalize the content and advertising you see.
Visit our Privacy Policy to learn more. By continuing to use the site, you agree to this use of cookies and data.
  • In Austria
  • List of Countries
  • For 7 days
  • Water Temperature
  • Satellite Maps
  • Weather Map
  • News
  • Weather Widgets
  • user-avatar
    Login

    Hourly Weather Luanda

    Today, 16 January, Wednesday

    Time Temperature Precipitation Wind Pressure Humidity
    00:00 +27°C° 0 mm 2 mps 754 mmHg 81%
    01:00 +27°C° 0 mm 2 mps 754 mmHg 81%
    02:00 +26°C° 0 mm 1 mps 754 mmHg 82%
    03:00 +26°C° 0 mm 1 mps 754 mmHg 83%
    04:00 +26°C° 0 mm 1 mps 754 mmHg 84%
    05:00 +26°C° 0 mm 2 mps 754 mmHg 84%
    06:00 +26°C° 0 mm 2 mps 754 mmHg 84%
    07:00 +26°C° 0 mm 3 mps 755 mmHg 84%
    08:00 +28°C° 0 mm 2 mps 755 mmHg 75%
    09:00 +30°C° 0 mm 2 mps 755 mmHg 66%
    10:00 +32°C° 0 mm 1 mps 755 mmHg 57%
    11:00 +34°C° 0 mm 2 mps 754 mmHg 53%
    12:00 +35°C° 0 mm 3 mps 753 mmHg 49%
    13:00 +36°C° 0 mm 4 mps 753 mmHg 46%
    14:00 +35°C° 0 mm 5 mps 752 mmHg 49%
    15:00 +34°C° 0 mm 5 mps 752 mmHg 52%
    16:00 +34°C° 0 mm 6 mps 751 mmHg 55%
    17:00 +32°C° 0 mm 6 mps 752 mmHg 61%
    18:00 +30°C° 0 mm 5 mps 752 mmHg 66%
    19:00 +29°C° 0 mm 5 mps 752 mmHg 72%
    20:00 +28°C° 0 mm 4 mps 753 mmHg 74%
    21:00 +28°C° 0 mm 3 mps 754 mmHg 75%
    22:00 +28°C° 0 mm 3 mps 754 mmHg 77%
    23:00 +28°C° 0 mm 2 mps 754 mmHg 78%

    Tomorrow, 17 January, Thursday

    Time Temperature Precipitation Wind Pressure Humidity
    00:00 +28°C° 0 mm 1 mps 754 mmHg 79%
    01:00 +27°C° 0 mm 1 mps 754 mmHg 80%
    02:00 +27°C° 0 mm 1 mps 754 mmHg 81%
    03:00 +27°C° 0 mm 1 mps 754 mmHg 83%
    04:00 +27°C° 0 mm 2 mps 753 mmHg 84%
    05:00 +27°C° 0 mm 2 mps 753 mmHg 84%
    06:00 +27°C° 0 mm 2 mps 754 mmHg 84%
    07:00 +27°C° 0 mm 2 mps 754 mmHg 83%
    08:00 +29°C° 0 mm 2 mps 754 mmHg 74%
    09:00 +30°C° 0 mm 1 mps 754 mmHg 64%
    10:00 +32°C° 0 mm 1 mps 754 mmHg 54%
    11:00 +34°C° 0 mm 2 mps 754 mmHg 50%
    12:00 +36°C° 0 mm 3 mps 753 mmHg 46%
    13:00 +37°C° 0 mm 4 mps 753 mmHg 41%
    14:00 +36°C° 0 mm 5 mps 752 mmHg 46%
    15:00 +35°C° 0 mm 6 mps 752 mmHg 52%
    16:00 +34°C° 0 mm 7 mps 751 mmHg 57%
    17:00 +33°C° 0 mm 6 mps 751 mmHg 61%
    18:00 +30°C° 0 mm 6 mps 752 mmHg 65%
    19:00 +29°C° 0 mm 5 mps 752 mmHg 69%
    20:00 +29°C° 0 mm 5 mps 753 mmHg 71%
    21:00 +29°C° 0 mm 5 mps 753 mmHg 73%
    22:00 +28°C° 0 mm 4 mps 754 mmHg 75%
    23:00 +28°C° 0 mm 4 mps 754 mmHg 77%

    Day after tomorrow, 18 January, Friday

    Time Temperature Precipitation Wind Pressure Humidity
    00:00 +28°C° 0 mm 3 mps 754 mmHg 79%
    01:00 +28°C° 0 mm 3 mps 754 mmHg 80%
    02:00 +27°C° 0 mm 3 mps 754 mmHg 81%
    03:00 +27°C° 0 mm 3 mps 753 mmHg 82%
    04:00 +27°C° 0 mm 3 mps 753 mmHg 83%
    05:00 +27°C° 0 mm 3 mps 753 mmHg 82%
    06:00 +27°C° 0 mm 3 mps 754 mmHg 80%
    07:00 +27°C° 0 mm 3 mps 754 mmHg 79%
    08:00 +29°C° 0 mm 2 mps 754 mmHg 71%
    09:00 +30°C° 0 mm 2 mps 755 mmHg 64%
    10:00 +32°C° 0 mm 2 mps 755 mmHg 56%
    11:00 +34°C° 0 mm 3 mps 754 mmHg 53%
    12:00 +35°C° 0 mm 4 mps 754 mmHg 50%
    13:00 +36°C° 0 mm 5 mps 753 mmHg 47%
    14:00 +35°C° 0 mm 5 mps 752 mmHg 50%
    15:00 +34°C° 0 mm 6 mps 752 mmHg 54%
    16:00 +33°C° 0 mm 6 mps 751 mmHg 57%
    17:00 +32°C° 0 mm 6 mps 752 mmHg 61%
    18:00 +30°C° 0 mm 6 mps 752 mmHg 66%
    19:00 +29°C° 0 mm 5 mps 753 mmHg 70%
    20:00 +28°C° 0 mm 5 mps 753 mmHg 73%
    21:00 +28°C° 0 mm 4 mps 754 mmHg 76%
    22:00 +28°C° 0 mm 3 mps 755 mmHg 79%
    23:00 +27°C° 0 mm 3 mps 755 mmHg 80%

    19 January, Saturday

    Time Temperature Precipitation Wind Pressure Humidity
    00:00 +27°C° 0 mm 3 mps 754 mmHg 81%
    01:00 +27°C° 0 mm 3 mps 754 mmHg 82%
    02:00 +27°C° 0 mm 3 mps 754 mmHg 82%
    03:00 +27°C° 0 mm 3 mps 753 mmHg 82%
    04:00 +27°C° 0 mm 2 mps 753 mmHg 82%
    05:00 +27°C° 0 mm 2 mps 754 mmHg 81%
    06:00 +27°C° 0 mm 2 mps 754 mmHg 80%
    07:00 +27°C° 0 mm 2 mps 754 mmHg 79%
    08:00 +29°C° 0 mm 2 mps 755 mmHg 72%
    09:00 +30°C° 0 mm 1 mps 755 mmHg 66%
    10:00 +29°C° 0 mm 0 mps 755 mmHg 59%
    11:00 +32°C° 0 mm 1 mps 754 mmHg 55%
    12:00 +34°C° 0 mm 2 mps 753 mmHg 52%
    13:00 +35°C° 0 mm 3 mps 753 mmHg 48%
    14:00 +35°C° 0 mm 4 mps 752 mmHg 49%
    15:00 +34°C° 0 mm 5 mps 752 mmHg 51%
    16:00 +34°C° 0 mm 6 mps 751 mmHg 52%
    17:00 +33°C° 0 mm 5 mps 752 mmHg 58%
    18:00 +30°C° 0 mm 5 mps 752 mmHg 64%
    19:00 +29°C° 0 mm 5 mps 753 mmHg 70%
    20:00 +28°C° 0 mm 5 mps 753 mmHg 72%
    21:00 +28°C° 0 mm 4 mps 754 mmHg 74%
    22:00 +28°C° 0 mm 4 mps 754 mmHg 76%
    23:00 +27°C° 0 mm 4 mps 754 mmHg 78%

    20 January, Sunday

    Time Temperature Precipitation Wind Pressure Humidity
    00:00 +27°C° 0 mm 3 mps 754 mmHg 80%
    01:00 +27°C° 0 mm 3 mps 753 mmHg 81%
    02:00 +26°C° 0 mm 3 mps 753 mmHg 82%
    03:00 +26°C° 0 mm 3 mps 753 mmHg 83%
    04:00 +26°C° 0 mm 3 mps 753 mmHg 83%
    05:00 +26°C° 0 mm 3 mps 753 mmHg 82%
    06:00 +26°C° 0 mm 3 mps 754 mmHg 81%
    07:00 +26°C° 0 mm 3 mps 754 mmHg 80%
    08:00 +28°C° 0 mm 2 mps 755 mmHg 74%
    09:00 +29°C° 0 mm 2 mps 755 mmHg 67%
    10:00 +31°C° 0 mm 2 mps 755 mmHg 60%
    11:00 +32°C° 0 mm 2 mps 754 mmHg 55%
    12:00 +34°C° 0 mm 3 mps 754 mmHg 50%
    13:00 +36°C° 0 mm 4 mps 753 mmHg 45%
    14:00 +35°C° 0 mm 5 mps 752 mmHg 50%
    15:00 +34°C° 0 mm 5 mps 752 mmHg 55%
    16:00 +33°C° 0 mm 6 mps 751 mmHg 59%
    17:00 +32°C° 0 mm 6 mps 752 mmHg 64%
    18:00 +30°C° 0 mm 5 mps 752 mmHg 69%
    19:00 +28°C° 0 mm 5 mps 753 mmHg 74%
    20:00 +28°C° 0 mm 4 mps 754 mmHg 76%
    21:00 +28°C° 0 mm 4 mps 754 mmHg 78%
    22:00 +28°C° 0 mm 3 mps 755 mmHg 80%
    23:00 +27°C° 0 mm 3 mps 755 mmHg 80%

    21 January, Monday

    Time Temperature Precipitation Wind Pressure Humidity
    00:00 +27°C° 0 mm 3 mps 754 mmHg 80%
    01:00 +27°C° 0 mm 2 mps 754 mmHg 80%
    02:00 +27°C° 0 mm 2 mps 754 mmHg 80%
    03:00 +27°C° 0 mm 2 mps 754 mmHg 80%
    04:00 +27°C° 0 mm 2 mps 754 mmHg 80%
    05:00 +27°C° 0 mm 2 mps 754 mmHg 79%
    06:00 +27°C° 0 mm 2 mps 754 mmHg 78%
    07:00 +28°C° 0 mm 2 mps 755 mmHg 77%
    08:00 +28°C° 0 mm 2 mps 755 mmHg 73%
    09:00 +29°C° 0 mm 1 mps 755 mmHg 69%
    10:00 +30°C° 0 mm 1 mps 755 mmHg 65%
    11:00 +30°C° 0 mm 2 mps 755 mmHg 64%
    12:00 +30°C° 0 mm 2 mps 754 mmHg 62%
    13:00 +31°C° 0 mm 2 mps 753 mmHg 61%
    14:00 +31°C° 0 mm 3 mps 753 mmHg 60%
    15:00 +31°C° 0 mm 3 mps 752 mmHg 59%
    16:00 +33°C° 0 mm 3 mps 752 mmHg 58%
    17:00 +32°C° 0 mm 4 mps 752 mmHg 64%
    18:00 +30°C° 0 mm 4 mps 753 mmHg 69%
    19:00 +28°C° 0 mm 4 mps 753 mmHg 75%
    20:00 +28°C° 0 mm 4 mps 753 mmHg 76%
    21:00 +28°C° 0 mm 4 mps 754 mmHg 77%
    22:00 +28°C° 0 mm 3 mps 754 mmHg 77%
    23:00 +27°C° 0 mm 3 mps 754 mmHg 79%
    Show more